Time,TemperatureF,DewpointF,PressureIn,WindDirection,WindDirectionDegrees,WindSpeedMPH,WindSpeedGustMPH,Humidity,HourlyPrecipIn,Conditions,Clouds,dailyrainin,SoftwareType,DateUTC
2013-08-07 00:01:00,54.3,38.5,30.01,SW,225,1.2,1.2,55,0.00,CLR,,0.00,WeatherDisplay:10.37,2013-08-07 07:01:00,
2013-08-07 00:06:00,54.3,38.9,30.02,SW,225,3.5,3.5,56,0.00,CLR,,0.00,WeatherDisplay:10.37,2013-08-07 07:06:00,
2013-08-07 00:11:00,54.3,39.4,30.00,SW,225,1.2,0.0,57,0.00,CLR,,0.00,WeatherDisplay:10.37,2013-08-07 07:11:00,
2013-08-07 00:16:00,54.3,39.4,30.00,West,270,1.2,1.2,57,0.00,CLR,,0.00,WeatherDisplay:10.37,2013-08-07 07:16:00,
2013-08-07 00:21:00,54.3,39.4,30.00,West,270,1.2,0.0,57,0.00,CLR,,0.00,WeatherDisplay:10.37,2013-08-07 07:21:00,
2013-08-07 00:26:00,54.3,39.4,30.00,SW,225,1.2,0.0,57,0.00,CLR,,0.00,WeatherDisplay:10.37,2013-08-07 07:26:00,
2013-08-07 00:31:00,54.3,39.8,30.01,SW,225,1.2,0.0,58,0.00,CLR,,0.00,WeatherDisplay:10.37,2013-08-07 07:31:00,
2013-08-07 00:36:00,54.5,40.0,30.01,South,180,2.3,2.3,58,0.00,CLR,,0.00,WeatherDisplay:10.37,2013-08-07 07:36:00,
2013-08-07 00:41:00,54.5,40.5,30.02,South,180,2.3,2.3,59,0.00,CLR,,0.00,WeatherDisplay:10.37,2013-08-07 07:41:00,
2013-08-07 00:46:00,54.5,40.5,30.02,SW,225,2.3,2.3,59,0.00,CLR,,0.00,WeatherDisplay:10.37,2013-08-07 07:46:00,
2013-08-07 00:51:00,54.5,40.5,30.01,SW,225,2.3,2.3,59,0.00,CLR,,0.00,WeatherDisplay:10.37,2013-08-07 07:51:00,
2013-08-07 00:56:00,54.3,40.7,30.01,SW,225,1.2,1.2,60,0.00,CLR,,0.00,WeatherDisplay:10.37,2013-08-07 07:56:00,
2013-08-07 01:01:00,54.3,40.7,30.01,SW,225,1.2,0.0,60,0.00,CLR,,0.00,WeatherDisplay:10.37,2013-08-07 08:01:00,
2013-08-07 01:06:00,54.3,41.1,30.01,SW,225,1.2,0.0,61,0.00,CLR,,0.00,WeatherDisplay:10.37,2013-08-07 08:06:00,
2013-08-07 01:11:00,54.3,40.7,30.00,NW,315,1.2,0.0,60,0.00,CLR,,0.00,WeatherDisplay:10.37,2013-08-07 08:11:00,
2013-08-07 01:16:00,54.5,41.3,30.01,NW,315,0.0,0.0,61,0.00,CLR,,0.00,WeatherDisplay:10.37,2013-08-07 08:16:00,
2013-08-07 01:21:00,54.5,41.3,30.00,South,180,0.0,0.0,61,0.00,CLR,,0.00,WeatherDisplay:10.37,2013-08-07 08:21:00,
2013-08-07 01:26:00,54.5,41.3,30.01,South,180,2.3,2.3,61,0.00,CLR,,0.00,WeatherDisplay:10.37,2013-08-07 08:26:00,
2013-08-07 01:31:00,54.7,41.5,30.01,South,180,2.3,2.3,61,0.00,CLR,,0.00,WeatherDisplay:10.37,2013-08-07 08:31:00,
2013-08-07 01:36:00,54.7,41.5,30.02,SW,225,2.3,2.3,61,0.00,CLR,,0.00,WeatherDisplay:10.37,2013-08-07 08:36:00,
2013-08-07 01:41:00,54.5,41.3,30.00,SW,225,1.2,0.0,61,0.00,CLR,,0.00,WeatherDisplay:10.37,2013-08-07 08:41:00,
2013-08-07 01:46:00,54.5,41.7,30.00,NW,315,0.0,0.0,62,0.00,CLR,,0.00,WeatherDisplay:10.37,2013-08-07 08:46:00,
2013-08-07 01:51:00,54.5,41.7,30.00,NW,315,1.2,0.0,62,0.00,CLR,,0.00,WeatherDisplay:10.37,2013-08-07 08:51:00,
2013-08-07 01:56:00,54.7,41.9,29.99,East,90,1.2,0.0,62,0.00,CLR,,0.00,WeatherDisplay:10.37,2013-08-07 08:56:00,
2013-08-07 02:01:00,54.7,41.9,30.00,South,180,1.6,1.6,62,0.00,CLR,,0.00,WeatherDisplay:10.37,2013-08-07 09:01:00,
2013-08-07 02:06:00,54.7,41.9,30.00,SW,225,1.2,1.2,62,0.00,CLR,,0.00,WeatherDisplay:10.37,2013-08-07 09:06:00,
2013-08-07 02:11:00,54.5,41.7,30.00,SW,225,2.3,2.3,62,0.00,CLR,,0.00,WeatherDisplay:10.37,2013-08-07 09:11:00,
2013-08-07 02:16:00,54.5,41.7,30.00,SW,225,1.2,0.0,62,0.00,CLR,,0.00,WeatherDisplay:10.37,2013-08-07 09:16:00,
2013-08-07 02:21:00,54.5,42.2,30.00,West,270,0.0,0.0,63,0.00,CLR,,0.00,WeatherDisplay:10.37,2013-08-07 09:21:00,
2013-08-07 02:26:00,54.5,41.7,30.00,SW,225,1.2,0.0,62,0.00,CLR,,0.00,WeatherDisplay:10.37,2013-08-07 09:26:00,
2013-08-07 02:31:00,54.5,42.2,30.00,SW,225,1.2,0.0,63,0.00,CLR,,0.00,WeatherDisplay:10.37,2013-08-07 09:31:00,
2013-08-07 02:36:00,54.5,41.7,30.00,West,270,0.0,0.0,62,0.00,CLR,,0.00,WeatherDisplay:10.37,2013-08-07 09:36:00,
2013-08-07 02:41:00,54.5,42.2,30.00,South,180,1.2,1.2,63,0.00,CLR,,0.00,WeatherDisplay:10.37,2013-08-07 09:41:00,
2013-08-07 02:46:00,54.5,42.2,30.00,SW,225,1.2,0.0,63,0.00,CLR,,0.00,WeatherDisplay:10.37,2013-08-07 09:46:00,
2013-08-07 02:51:00,54.5,42.2,30.00,SW,225,0.0,0.0,63,0.00,CLR,,0.00,WeatherDisplay:10.37,2013-08-07 09:51:00,
2013-08-07 02:56:00,54.5,42.2,30.00,SW,225,0.0,0.0,63,0.00,CLR,,0.00,WeatherDisplay:10.37,2013-08-07 09:56:00,
2013-08-07 03:01:00,54.5,42.2,29.99,West,270,0.0,0.0,63,0.00,CLR,,0.00,WeatherDisplay:10.37,2013-08-07 10:01:00,
2013-08-07 03:06:00,54.5,42.2,29.99,SW,225,1.2,0.0,63,0.00,CLR,,0.00,WeatherDisplay:10.37,2013-08-07 10:06:00,
2013-08-07 03:11:00,54.5,42.2,30.00,South,180,1.2,1.2,63,0.00,CLR,,0.00,WeatherDisplay:10.37,2013-08-07 10:11:00,
2013-08-07 03:16:00,54.7,42.3,30.00,South,180,1.2,1.2,63,0.00,CLR,,0.00,WeatherDisplay:10.37,2013-08-07 10:16:00,
2013-08-07 03:21:00,54.5,42.2,30.01,South,180,2.3,2.3,63,0.00,CLR,,0.00,WeatherDisplay:10.37,2013-08-07 10:21:00,
2013-08-07 03:26:00,54.7,42.3,30.01,South,180,1.2,1.2,63,0.00,CLR,,0.00,WeatherDisplay:10.37,2013-08-07 10:26:00,
2013-08-07 03:31:00,54.5,42.2,30.01,South,180,1.2,0.0,63,0.00,CLR,,0.00,WeatherDisplay:10.37,2013-08-07 10:31:00,
2013-08-07 03:36:00,54.5,42.6,30.01,SW,225,1.2,0.0,64,0.00,CLR,,0.00,WeatherDisplay:10.37,2013-08-07 10:36:00,
2013-08-07 03:41:00,54.5,42.6,30.02,South,180,1.2,0.0,64,0.00,CLR,,0.00,WeatherDisplay:10.37,2013-08-07 10:41:00,
2013-08-07 03:46:00,54.5,42.6,30.02,SE,135,1.2,0.0,64,0.00,CLR,,0.00,WeatherDisplay:10.37,2013-08-07 10:46:00,
2013-08-07 03:51:00,54.7,42.7,30.02,South,180,1.2,0.0,64,0.00,CLR,,0.00,WeatherDisplay:10.37,2013-08-07 10:51:00,
2013-08-07 03:56:00,54.5,42.6,30.01,East,90,0.0,0.0,64,0.00,CLR,,0.00,WeatherDisplay:10.37,2013-08-07 10:56:00,
2013-08-07 04:01:00,54.5,42.6,30.00,West,270,0.0,0.0,64,0.00,CLR,,0.00,WeatherDisplay:10.37,2013-08-07 11:01:00,
2013-08-07 04:06:00,54.7,42.7,30.00,SW,225,0.0,0.0,64,0.00,CLR,,0.00,WeatherDisplay:10.37,2013-08-07 11:06:00,
2013-08-07 04:11:00,54.5,42.6,30.00,SW,225,1.2,0.0,64,0.00,CLR,,0.00,WeatherDisplay:10.37,2013-08-07 11:11:00,
2013-08-07 04:16:00,54.5,42.6,30.00,SW,225,0.0,0.0,64,0.00,CLR,,0.00,WeatherDisplay:10.37,2013-08-07 11:16:00,
2013-08-07 04:21:00,54.7,42.7,30.01,East,90,0.0,0.0,64,0.00,CLR,,0.00,WeatherDisplay:10.37,2013-08-07 11:21:00,
2013-08-07 04:26:00,54.5,42.6,30.01,NE,45,1.2,0.0,64,0.00,CLR,,0.00,WeatherDisplay:10.37,2013-08-07 11:26:00,
2013-08-07 04:31:00,54.7,42.7,30.02,SE,135,1.2,0.0,64,0.00,CLR,,0.00,WeatherDisplay:10.37,2013-08-07 11:31:00,
2013-08-07 04:36:00,54.7,42.7,30.02,South,180,1.2,0.0,64,0.00,CLR,,0.00,WeatherDisplay:10.37,2013-08-07 11:36:00,
2013-08-07 04:41:00,54.7,42.7,30.02,SW,225,1.2,0.0,64,0.00,CLR,,0.00,WeatherDisplay:10.37,2013-08-07 11:41:00,
2013-08-07 04:46:00,54.5,42.6,30.03,South,180,2.3,2.3,64,0.00,CLR,,0.00,WeatherDisplay:10.37,2013-08-07 11:46:00,
2013-08-07 04:51:00,54.7,42.7,30.03,SW,225,2.3,2.3,64,0.00,CLR,,0.00,WeatherDisplay:10.37,2013-08-07 11:51:00,
2013-08-07 04:56:00,54.5,42.6,30.03,SW,225,0.0,0.0,64,0.00,CLR,,0.00,WeatherDisplay:10.37,2013-08-07 11:56:00,
2013-08-07 05:01:00,54.5,42.6,30.02,NW,315,0.0,0.0,64,0.00,CLR,,0.00,WeatherDisplay:10.37,2013-08-07 12:01:00,
2013-08-07 05:06:00,54.5,42.6,30.02,North,0,1.2,0.0,64,0.00,CLR,,0.00,WeatherDisplay:10.37,2013-08-07 12:06:00,
2013-08-07 05:11:00,54.5,42.6,30.01,NW,315,1.2,0.0,64,0.00,CLR,,0.00,WeatherDisplay:10.37,2013-08-07 12:11:00,
2013-08-07 05:16:00,54.5,43.0,30.01,NW,315,1.2,0.0,65,0.00,CLR,,0.00,WeatherDisplay:10.37,2013-08-07 12:16:00,
2013-08-07 05:21:00,54.5,42.6,30.00,NW,315,1.2,0.0,64,0.00,CLR,,0.00,WeatherDisplay:10.37,2013-08-07 12:21:00,
2013-08-07 05:26:00,54.5,43.0,30.00,South,180,0.0,0.0,65,0.00,CLR,,0.00,WeatherDisplay:10.37,2013-08-07 12:26:00,
2013-08-07 05:31:00,54.5,43.0,30.01,East,90,1.2,1.2,65,0.00,CLR,,0.00,WeatherDisplay:10.37,2013-08-07 12:31:00,
2013-08-07 05:36:00,54.5,43.0,30.00,NE,45,1.2,0.0,65,0.00,CLR,,0.00,WeatherDisplay:10.37,2013-08-07 12:36:00,
2013-08-07 05:41:00,54.5,43.0,30.00,SE,135,0.0,0.0,65,0.00,CLR,,0.00,WeatherDisplay:10.37,2013-08-07 12:41:00,
2013-08-07 05:46:00,54.5,43.0,30.01,South,180,1.2,0.0,65,0.00,CLR,,0.00,WeatherDisplay:10.37,2013-08-07 12:46:00,
2013-08-07 05:51:00,54.5,43.0,30.01,South,180,1.2,0.0,65,0.00,CLR,,0.00,WeatherDisplay:10.37,2013-08-07 12:51:00,
2013-08-07 05:56:00,54.3,42.8,30.00,South,180,1.2,0.0,65,0.00,CLR,,0.00,WeatherDisplay:10.37,2013-08-07 12:56:00,
2013-08-07 06:01:00,54.7,43.1,30.00,SW,225,1.2,0.0,65,0.00,CLR,,0.00,WeatherDisplay:10.37,2013-08-07 13:01:00,
2013-08-07 06:06:00,54.3,42.8,30.00,South,180,1.2,0.0,65,0.00,CLR,,0.00,WeatherDisplay:10.37,2013-08-07 13:06:00,
2013-08-07 06:11:00,54.7,43.1,30.00,SW,225,3.5,3.5,65,0.00,CLR,,0.00,WeatherDisplay:10.37,2013-08-07 13:11:00,
2013-08-07 06:16:00,54.3,42.8,30.00,SW,225,1.6,0.0,65,0.00,CLR,,0.00,WeatherDisplay:10.37,2013-08-07 13:16:00,
2013-08-07 06:21:00,54.3,42.8,30.00,SSW,202,2.3,2.3,65,0.00,CLR,,0.00,WeatherDisplay:10.37,2013-08-07 13:21:00,
2013-08-07 06:26:00,54.1,42.6,30.00,SW,225,2.3,2.3,65,0.00,CLR,,0.00,WeatherDisplay:10.37,2013-08-07 13:26:00,
2013-08-07 06:31:00,54.1,43.0,30.00,SW,225,1.2,0.0,66,0.00,CLR,,0.00,WeatherDisplay:10.37,2013-08-07 13:31:00,
2013-08-07 06:36:00,54.1,43.0,29.99,SW,225,0.0,0.0,66,0.00,CLR,,0.00,WeatherDisplay:10.37,2013-08-07 13:36:00,
2013-08-07 06:41:00,54.3,43.2,29.99,NW,315,0.0,0.0,66,0.00,CLR,,0.00,WeatherDisplay:10.37,2013-08-07 13:41:00,
2013-08-07 06:46:00,54.3,43.2,29.99,South,180,2.3,2.3,66,0.00,CLR,,0.00,WeatherDisplay:10.37,2013-08-07 13:46:00,
2013-08-07 06:51:00,54.3,43.2,29.99,South,180,1.2,0.0,66,0.00,CLR,,0.00,WeatherDisplay:10.37,2013-08-07 13:51:00,
2013-08-07 06:56:00,54.3,43.2,30.00,South,180,1.2,1.2,66,0.00,CLR,,0.00,WeatherDisplay:10.37,2013-08-07 13:56:00,
2013-08-07 07:01:00,54.3,43.2,29.99,SW,225,2.3,2.3,66,0.00,CLR,,0.00,WeatherDisplay:10.37,2013-08-07 14:01:00,
2013-08-07 07:06:00,54.3,43.2,30.00,SW,225,1.2,0.0,66,0.00,CLR,,0.00,WeatherDisplay:10.37,2013-08-07 14:06:00,
2013-08-07 07:11:00,54.3,43.2,30.00,SW,225,1.2,1.2,66,0.00,CLR,,0.00,WeatherDisplay:10.37,2013-08-07 14:11:00,
2013-08-07 07:16:00,54.3,43.2,30.00,SW,225,2.3,2.3,66,0.00,CLR,,0.00,WeatherDisplay:10.37,2013-08-07 14:16:00,
2013-08-07 07:21:00,54.3,43.6,29.99,SW,225,1.2,0.0,67,0.00,CLR,,0.00,WeatherDisplay:10.37,2013-08-07 14:21:00,
2013-08-07 07:26:00,54.5,43.8,29.99,NW,315,1.2,1.2,67,0.00,CLR,,0.00,WeatherDisplay:10.37,2013-08-07 14:26:00,
2013-08-07 07:31:00,54.7,43.9,29.99,West,270,2.3,0.0,67,0.00,CLR,,0.00,WeatherDisplay:10.37,2013-08-07 14:31:00,
2013-08-07 07:36:00,54.7,43.9,30.00,West,270,1.2,0.0,67,0.00,CLR,,0.00,WeatherDisplay:10.37,2013-08-07 14:36:00,
2013-08-07 07:41:00,55.0,44.3,30.00,SW,225,1.2,0.0,67,0.00,CLR,,0.00,WeatherDisplay:10.37,2013-08-07 14:41:00,
2013-08-07 07:46:00,55.0,44.3,30.00,SW,225,3.8,3.8,67,0.00,CLR,,0.00,WeatherDisplay:10.37,2013-08-07 14:46:00,
2013-08-07 07:51:00,55.0,44.3,30.01,SW,225,2.3,2.3,67,0.00,CLR,,0.00,WeatherDisplay:10.37,2013-08-07 14:51:00,
2013-08-07 07:56:00,55.4,44.6,30.01,South,180,2.3,2.3,67,0.00,CLR,,0.00,WeatherDisplay:10.37,2013-08-07 14:56:00,
2013-08-07 08:01:00,55.8,45.0,30.01,South,180,1.2,1.2,67,0.00,CLR,,0.00,WeatherDisplay:10.37,2013-08-07 15:01:00,
2013-08-07 08:06:00,55.9,45.1,30.01,South,180,1.2,0.0,67,0.00,CLR,,0.00,WeatherDisplay:10.37,2013-08-07 15:06:00,
2013-08-07 08:11:00,55.9,45.1,30.01,SW,225,1.2,0.0,67,0.00,CLR,,0.00,WeatherDisplay:10.37,2013-08-07 15:11:00,
2013-08-07 08:16:00,56.3,45.5,30.01,South,180,1.2,0.0,67,0.00,CLR,,0.00,WeatherDisplay:10.37,2013-08-07 15:16:00,
2013-08-07 08:21:00,56.3,45.1,30.01,South,180,1.2,0.0,66,0.00,CLR,,0.00,WeatherDisplay:10.37,2013-08-07 15:21:00,
2013-08-07 08:26:00,56.3,45.1,30.02,SW,225,2.3,2.3,66,0.00,CLR,,0.00,WeatherDisplay:10.37,2013-08-07 15:26:00,
2013-08-07 08:31:00,56.5,44.9,30.02,SW,225,2.3,2.3,65,0.00,CLR,,0.00,WeatherDisplay:10.37,2013-08-07 15:31:00,
2013-08-07 08:36:00,56.7,44.2,30.01,SW,225,3.5,3.5,63,0.00,CLR,,0.00,WeatherDisplay:10.37,2013-08-07 15:36:00,
2013-08-07 08:41:00,56.5,43.2,30.02,South,180,4.6,4.6,61,0.00,CLR,,0.00,WeatherDisplay:10.37,2013-08-07 15:41:00,
2013-08-07 08:46:00,56.5,42.3,30.02,SW,225,4.6,4.6,59,0.00,CLR,,0.00,WeatherDisplay:10.37,2013-08-07 15:46:00,
2013-08-07 08:51:00,56.7,42.5,30.02,West,270,1.2,0.0,59,0.00,CLR,,0.00,WeatherDisplay:10.37,2013-08-07 15:51:00,
2013-08-07 08:56:00,57.0,43.3,30.02,SW,225,2.3,2.3,60,0.00,CLR,,0.00,WeatherDisplay:10.37,2013-08-07 15:56:00,
2013-08-07 09:01:00,57.6,42.9,30.02,SW,225,1.2,0.0,58,0.01,RA,,0.01,WeatherDisplay:10.37,2013-08-07 16:01:00,
2013-08-07 09:06:00,58.1,42.9,30.02,NW,315,1.2,0.0,57,0.01,RA,,0.01,WeatherDisplay:10.37,2013-08-07 16:06:00,
2013-08-07 09:11:00,58.6,43.0,30.02,West,270,2.3,2.3,56,0.01,CLR,,0.01,WeatherDisplay:10.37,2013-08-07 16:11:00,
2013-08-07 09:16:00,58.8,42.2,30.03,SW,225,1.2,0.0,54,0.01,CLR,,0.01,WeatherDisplay:10.37,2013-08-07 16:16:00,
2013-08-07 09:21:00,59.4,41.7,30.03,NW,315,3.5,3.5,52,0.01,CLR,,0.01,WeatherDisplay:10.37,2013-08-07 16:21:00,
2013-08-07 09:26:00,59.5,40.3,30.03,SW,225,1.6,1.6,49,0.01,CLR,,0.01,WeatherDisplay:10.37,2013-08-07 16:26:00,
2013-08-07 09:34:00,59.5,36.4,30.03,SW,225,1.2,0.0,42,0.01,CLR,,0.01,WeatherDisplay:10.37,2013-08-07 16:34:00,
2013-08-07 09:39:00,59.4,34.4,30.04,NW,315,2.3,0.0,39,0.01,RA,,0.01,WeatherDisplay:10.37,2013-08-07 16:39:00,
2013-08-07 09:44:00,59.4,33.7,30.04,NW,315,1.2,0.0,38,0.01,RA,,0.01,WeatherDisplay:10.37,2013-08-07 16:44:00,
2013-08-07 09:49:00,59.5,33.2,30.03,NW,315,2.3,0.0,37,0.01,CLR,,0.01,WeatherDisplay:10.37,2013-08-07 16:49:00,
2013-08-07 09:54:00,59.5,31.8,30.03,South,180,1.2,0.0,35,0.01,CLR,,0.01,WeatherDisplay:10.37,2013-08-07 16:54:00,
2013-08-07 09:59:00,59.7,30.5,30.03,SW,225,1.2,0.0,33,0.01,CLR,,0.01,WeatherDisplay:10.37,2013-08-07 16:59:00,
2013-08-07 10:04:00,59.9,29.9,30.03,West,270,1.2,0.0,32,0.01,CLR,,0.01,WeatherDisplay:10.37,2013-08-07 17:04:00,
2013-08-07 10:09:00,60.3,29.5,30.03,West,270,1.2,0.0,31,0.00,CLR,,0.01,WeatherDisplay:10.37,2013-08-07 17:09:00,
2013-08-07 10:14:00,60.6,27.3,30.03,West,270,1.2,1.2,28,0.00,CLR,,0.01,WeatherDisplay:10.37,2013-08-07 17:14:00,
2013-08-07 10:19:00,61.0,24.9,30.03,NW,315,3.5,3.5,25,0.00,CLR,,0.01,WeatherDisplay:10.37,2013-08-07 17:19:00,
2013-08-07 10:24:00,61.2,22.0,30.03,West,270,2.3,2.3,22,0.00,CLR,,0.01,WeatherDisplay:10.37,2013-08-07 17:24:00,
2013-08-07 10:29:00,60.8,15.6,30.03,West,270,2.3,2.3,17,0.00,CLR,,0.01,WeatherDisplay:10.37,2013-08-07 17:29:00,
2013-08-07 10:34:00,60.4,14.0,30.03,West,270,2.3,2.3,16,0.00,CLR,,0.01,WeatherDisplay:10.37,2013-08-07 17:34:00,
2013-08-07 10:39:00,60.3,15.2,30.03,SW,225,3.5,0.0,17,0.00,CLR,,0.01,WeatherDisplay:10.37,2013-08-07 17:39:00,
2013-08-07 10:44:00,60.6,19.3,30.03,West,270,2.3,0.0,20,0.00,CLR,,0.01,WeatherDisplay:10.37,2013-08-07 17:44:00,
2013-08-07 10:49:00,61.2,18.5,30.03,West,270,2.3,2.3,19,0.00,CLR,,0.01,WeatherDisplay:10.37,2013-08-07 17:49:00,
2013-08-07 10:54:00,61.0,11.4,30.03,SW,225,5.8,5.8,14,0.00,CLR,,0.01,WeatherDisplay:10.37,2013-08-07 17:54:00,
2013-08-07 10:59:00,60.8,12.8,30.03,SW,225,3.5,3.5,15,0.00,CLR,,0.01,WeatherDisplay:10.37,2013-08-07 17:59:00,
2013-08-07 11:04:00,61.3,14.7,30.03,West,270,3.5,3.5,16,0.00,CLR,,0.01,WeatherDisplay:10.37,2013-08-07 18:04:00,
2013-08-07 11:09:00,61.9,12.1,30.04,West,270,2.3,0.0,14,0.00,CLR,,0.01,WeatherDisplay:10.37,2013-08-07 18:09:00,
2013-08-07 11:14:00,62.2,4.9,30.03,NW,315,5.8,5.8,10,0.00,CLR,,0.01,WeatherDisplay:10.37,2013-08-07 18:14:00,
2013-08-07 11:19:00,62.6,5.2,30.03,West,270,4.6,4.6,10,0.00,CLR,,0.01,WeatherDisplay:10.37,2013-08-07 18:19:00,
2013-08-07 11:24:00,63.5,5.9,30.03,North,0,4.6,0.0,10,0.00,CLR,,0.01,WeatherDisplay:10.37,2013-08-07 18:24:00,
2013-08-07 11:29:00,64.8,6.8,30.04,NW,315,3.5,3.5,10,0.00,CLR,,0.01,WeatherDisplay:10.37,2013-08-07 18:29:00,
2013-08-07 11:34:00,64.8,6.8,30.04,North,0,5.8,5.8,10,0.00,CLR,,0.01,WeatherDisplay:10.37,2013-08-07 18:34:00,
2013-08-07 11:39:00,64.2,6.4,30.04,West,270,3.5,3.5,10,0.00,CLR,,0.01,WeatherDisplay:10.37,2013-08-07 18:39:00,
2013-08-07 11:44:00,63.3,5.7,30.03,SW,225,5.8,5.8,10,0.00,CLR,,0.01,WeatherDisplay:10.37,2013-08-07 18:44:00,
2013-08-07 11:49:00,61.0,3.9,30.04,SW,225,9.2,9.2,10,0.00,CLR,,0.01,WeatherDisplay:10.37,2013-08-07 18:49:00,
2013-08-07 11:54:00,60.1,7.2,30.04,South,180,9.2,9.2,12,0.00,CLR,,0.01,WeatherDisplay:10.37,2013-08-07 18:54:00,
2013-08-07 11:59:00,60.1,12.2,30.05,SW,225,10.4,10.4,15,0.00,CLR,,0.01,WeatherDisplay:10.37,2013-08-07 18:59:00,
2013-08-07 12:04:00,59.9,16.2,30.05,SW,225,6.9,6.9,18,0.00,CLR,,0.01,WeatherDisplay:10.37,2013-08-07 19:04:00,
2013-08-07 12:09:00,59.7,17.3,30.05,South,180,5.8,5.8,19,0.00,CLR,,0.01,WeatherDisplay:10.37,2013-08-07 19:09:00,
2013-08-07 12:14:00,59.7,18.5,30.05,SW,225,4.6,4.6,20,0.00,CLR,,0.01,WeatherDisplay:10.37,2013-08-07 19:14:00,
2013-08-07 12:19:00,60.1,17.6,30.06,SW,225,3.5,3.5,19,0.00,CLR,,0.01,WeatherDisplay:10.37,2013-08-07 19:19:00,
2013-08-07 12:24:00,60.3,16.5,30.06,SW,225,6.9,6.9,18,0.00,CLR,,0.01,WeatherDisplay:10.37,2013-08-07 19:24:00,
2013-08-07 12:29:00,60.3,12.4,30.06,SW,225,3.5,3.5,15,0.00,CLR,,0.01,WeatherDisplay:10.37,2013-08-07 19:29:00,
2013-08-07 12:34:00,60.3,15.2,30.06,SW,225,4.6,4.6,17,0.00,CLR,,0.01,WeatherDisplay:10.37,2013-08-07 19:34:00,
2013-08-07 12:39:00,60.3,12.4,30.07,West,270,3.5,3.5,15,0.00,CLR,,0.01,WeatherDisplay:10.37,2013-08-07 19:39:00,
2013-08-07 12:44:00,60.6,14.1,30.07,West,270,3.5,3.5,16,0.00,CLR,,0.01,WeatherDisplay:10.37,2013-08-07 19:44:00,
2013-08-07 12:49:00,60.8,9.6,30.07,South,180,3.5,3.5,13,0.00,CLR,,0.01,WeatherDisplay:10.37,2013-08-07 19:49:00,
2013-08-07 12:54:00,60.1,9.0,30.07,SW,225,6.9,6.9,13,0.00,CLR,,0.01,WeatherDisplay:10.37,2013-08-07 19:54:00,
2013-08-07 12:59:00,60.3,7.4,30.07,West,270,5.8,5.8,12,0.00,CLR,,0.01,WeatherDisplay:10.37,2013-08-07 19:59:00,
2013-08-07 13:04:00,60.4,5.6,30.07,SW,225,3.5,3.5,11,0.00,CLR,,0.01,WeatherDisplay:10.37,2013-08-07 20:04:00,
2013-08-07 13:09:00,60.8,3.8,30.07,West,270,4.6,4.6,10,0.00,CLR,,0.01,WeatherDisplay:10.37,2013-08-07 20:09:00,
2013-08-07 13:14:00,60.1,3.2,30.07,SW,225,12.7,12.7,10,0.00,CLR,,0.01,WeatherDisplay:10.37,2013-08-07 20:14:00,
2013-08-07 13:19:00,58.8,8.0,30.07,SW,225,9.2,9.2,13,0.00,CLR,,0.01,WeatherDisplay:10.37,2013-08-07 20:19:00,
2013-08-07 13:24:00,58.5,18.6,30.07,South,180,4.6,4.6,21,0.00,CLR,,0.01,WeatherDisplay:10.37,2013-08-07 20:24:00,
2013-08-07 13:29:00,59.0,20.2,30.07,SW,225,6.9,6.9,22,0.00,CLR,,0.01,WeatherDisplay:10.37,2013-08-07 20:29:00,
2013-08-07 13:34:00,58.6,16.4,30.07,SW,225,10.4,10.4,19,0.00,CLR,,0.01,WeatherDisplay:10.37,2013-08-07 20:34:00,
2013-08-07 13:39:00,57.9,21.3,30.07,SW,225,10.4,10.4,24,0.00,CLR,,0.01,WeatherDisplay:10.37,2013-08-07 20:39:00,
2013-08-07 13:44:00,57.7,22.1,30.07,SW,225,10.4,10.4,25,0.00,CLR,,0.01,WeatherDisplay:10.37,2013-08-07 20:44:00,
2013-08-07 13:49:00,58.1,23.3,30.08,West,270,5.8,5.8,26,0.00,CLR,,0.01,WeatherDisplay:10.37,2013-08-07 20:49:00,
2013-08-07 13:54:00,58.6,22.9,30.08,SW,225,1.2,2.2,25,0.00,CLR,,0.01,WeatherDisplay:10.37,2013-08-07 20:54:00,
2013-08-07 13:59:00,58.8,21.1,30.08,SW,225,5.8,5.8,23,0.00,CLR,,0.01,WeatherDisplay:10.37,2013-08-07 20:59:00,
2013-08-07 14:04:00,58.6,19.9,30.08,SW,225,5.8,5.8,22,0.00,CLR,,0.01,WeatherDisplay:10.37,2013-08-07 21:04:00,
2013-08-07 14:09:00,58.1,22.4,30.08,South,180,9.2,9.2,25,0.00,CLR,,0.01,WeatherDisplay:10.37,2013-08-07 21:09:00,
2013-08-07 14:14:00,57.9,26.6,30.08,SW,225,5.8,5.8,30,0.00,CLR,,0.01,WeatherDisplay:10.37,2013-08-07 21:14:00,
2013-08-07 14:19:00,57.6,27.1,30.08,South,180,5.8,5.8,31,0.00,CLR,,0.01,WeatherDisplay:10.37,2013-08-07 21:19:00,
2013-08-07 14:24:00,57.4,29.9,30.08,SW,225,8.1,8.1,35,0.00,CLR,,0.01,WeatherDisplay:10.37,2013-08-07 21:24:00,
2013-08-07 14:29:00,57.2,30.5,30.09,SSW,202,4.6,4.6,36,0.00,CLR,,0.01,WeatherDisplay:10.37,2013-08-07 21:29:00,
2013-08-07 14:34:00,57.2,32.4,30.08,SW,225,2.3,2.3,39,0.00,CLR,,0.01,WeatherDisplay:10.37,2013-08-07 21:34:00,
2013-08-07 14:39:00,57.4,33.9,30.08,SW,225,2.3,2.3,41,0.00,CLR,,0.01,WeatherDisplay:10.37,2013-08-07 21:39:00,
2013-08-07 14:44:00,57.2,32.4,30.08,SW,225,4.6,4.6,39,0.00,CLR,,0.01,WeatherDisplay:10.37,2013-08-07 21:44:00,
2013-08-07 14:49:00,57.0,32.9,30.08,SW,225,2.3,2.3,40,0.00,CLR,,0.01,WeatherDisplay:10.37,2013-08-07 21:49:00,
2013-08-07 14:54:00,57.4,34.5,30.08,NW,315,2.3,2.3,42,0.00,CLR,,0.01,WeatherDisplay:10.37,2013-08-07 21:54:00,
2013-08-07 14:59:00,57.7,35.4,30.07,SW,225,1.6,0.0,43,0.00,CLR,,0.01,WeatherDisplay:10.37,2013-08-07 21:59:00,
2013-08-07 15:04:00,57.9,34.9,30.07,West,270,1.2,0.0,42,0.00,CLR,,0.01,WeatherDisplay:10.37,2013-08-07 22:04:00,
2013-08-07 15:09:00,58.3,35.3,30.07,NW,315,1.2,0.0,42,0.00,CLR,,0.01,WeatherDisplay:10.37,2013-08-07 22:09:00,
2013-08-07 15:14:00,58.8,35.8,30.06,West,270,1.2,1.2,42,0.00,CLR,,0.01,WeatherDisplay:10.37,2013-08-07 22:14:00,
2013-08-07 15:19:00,59.0,34.7,30.06,West,270,1.2,0.0,40,0.00,CLR,,0.01,WeatherDisplay:10.37,2013-08-07 22:19:00,
2013-08-07 15:24:00,59.2,33.6,30.06,NE,45,2.3,2.3,38,0.00,CLR,,0.01,WeatherDisplay:10.37,2013-08-07 22:24:00,
2013-08-07 15:29:00,59.2,31.5,30.06,West,270,2.3,2.3,35,0.00,CLR,,0.01,WeatherDisplay:10.37,2013-08-07 22:29:00,
2013-08-07 15:34:00,59.5,31.1,30.05,West,270,3.5,3.5,34,0.00,CLR,,0.01,WeatherDisplay:10.37,2013-08-07 22:34:00,
2013-08-07 15:39:00,59.7,29.8,30.05,North,0,2.3,2.3,32,0.00,CLR,,0.01,WeatherDisplay:10.37,2013-08-07 22:39:00,
2013-08-07 15:44:00,60.1,28.5,30.05,ENE,68,3.8,3.8,30,0.00,CLR,,0.01,WeatherDisplay:10.37,2013-08-07 22:44:00,
2013-08-07 15:49:00,60.4,26.3,30.05,North,0,3.5,3.5,27,0.00,CLR,,0.01,WeatherDisplay:10.37,2013-08-07 22:49:00,
2013-08-07 15:54:00,60.8,24.7,30.05,North,0,3.5,0.0,25,0.00,CLR,,0.01,WeatherDisplay:10.37,2013-08-07 22:54:00,
2013-08-07 15:59:00,60.8,21.7,30.05,NE,45,1.2,1.2,22,0.00,CLR,,0.01,WeatherDisplay:10.37,2013-08-07 22:59:00,
2013-08-07 16:04:00,60.6,18.1,30.03,SW,225,3.5,0.0,19,0.00,CLR,,0.01,WeatherDisplay:10.37,2013-08-07 23:04:00,
2013-08-07 16:09:00,60.8,17.0,30.03,East,90,2.3,0.0,18,0.00,CLR,,0.01,WeatherDisplay:10.37,2013-08-07 23:09:00,
2013-08-07 16:14:00,61.0,17.1,30.04,NE,45,1.2,0.0,18,0.00,CLR,,0.01,WeatherDisplay:10.37,2013-08-07 23:14:00,
2013-08-07 16:19:00,61.0,14.4,30.03,NE,45,2.3,0.0,16,0.00,CLR,,0.01,WeatherDisplay:10.37,2013-08-07 23:19:00,
2013-08-07 16:25:00,61.0,11.4,30.04,NE,45,3.5,3.5,14,0.00,CLR,,0.01,WeatherDisplay:10.37,2013-08-07 23:25:00,
2013-08-07 16:30:00,61.0,9.7,30.04,NE,45,3.5,0.0,13,0.00,CLR,,0.01,WeatherDisplay:10.37,2013-08-07 23:30:00,
2013-08-07 16:35:00,60.8,7.8,30.04,NW,315,1.2,0.0,12,0.00,CLR,,0.01,WeatherDisplay:10.37,2013-08-07 23:35:00,
2013-08-07 16:40:00,60.8,9.6,30.04,SW,225,1.2,0.0,13,0.00,CLR,,0.01,WeatherDisplay:10.37,2013-08-07 23:40:00,
2013-08-07 16:45:00,60.8,7.8,30.04,NE,45,1.2,0.0,12,0.00,CLR,,0.01,WeatherDisplay:10.37,2013-08-07 23:45:00,
2013-08-07 16:50:00,60.6,9.4,30.04,West,270,2.3,2.3,13,0.00,CLR,,0.01,WeatherDisplay:10.37,2013-08-07 23:50:00,
2013-08-07 16:55:00,60.3,9.1,30.04,West,270,2.3,2.3,13,0.00,CLR,,0.01,WeatherDisplay:10.37,2013-08-07 23:55:00,
2013-08-07 17:00:00,60.3,9.1,30.04,West,270,2.3,2.3,13,0.00,CLR,,0.01,WeatherDisplay:10.37,2013-08-08 00:00:00,
2013-08-07 17:05:00,59.9,8.8,30.04,West,270,1.2,0.0,13,0.00,CLR,,0.01,WeatherDisplay:10.37,2013-08-08 00:05:00,
2013-08-07 17:10:00,60.1,12.2,30.05,West,270,1.2,0.0,15,0.00,CLR,,0.01,WeatherDisplay:10.37,2013-08-08 00:10:00,
2013-08-07 17:15:00,59.9,10.5,30.05,SW,225,2.3,2.3,14,0.00,CLR,,0.01,WeatherDisplay:10.37,2013-08-08 00:15:00,
2013-08-07 17:20:00,59.7,13.4,30.05,South,180,1.2,0.0,16,0.00,CLR,,0.01,WeatherDisplay:10.37,2013-08-08 00:20:00,
2013-08-07 17:25:00,59.7,14.8,30.05,SW,225,3.5,3.5,17,0.00,CLR,,0.01,WeatherDisplay:10.37,2013-08-08 00:25:00,
2013-08-07 17:30:00,59.5,18.4,30.05,SW,225,2.3,2.3,20,0.00,CLR,,0.01,WeatherDisplay:10.37,2013-08-08 00:30:00,
2013-08-07 17:35:00,59.7,17.3,30.05,South,180,2.3,2.3,19,0.00,CLR,,0.01,WeatherDisplay:10.37,2013-08-08 00:35:00,
2013-08-07 17:40:00,60.1,18.8,30.05,SW,225,1.2,0.0,20,0.00,CLR,,0.01,WeatherDisplay:10.37,2013-08-08 00:40:00,
2013-08-07 17:45:00,60.8,19.4,30.05,West,270,1.2,1.2,20,0.00,CLR,,0.01,WeatherDisplay:10.37,2013-08-08 00:45:00,
2013-08-07 17:50:00,61.3,16.1,30.05,West,270,1.2,1.2,17,0.00,CLR,,0.01,WeatherDisplay:10.37,2013-08-08 00:50:00,
2013-08-07 17:55:00,61.9,10.4,30.05,NW,315,2.2,2.2,13,0.00,CLR,,0.01,WeatherDisplay:10.37,2013-08-08 00:55:00,
2013-08-07 18:00:00,61.9,4.6,30.05,South,180,2.3,2.3,10,0.00,CLR,,0.01,WeatherDisplay:10.37,2013-08-08 01:00:00,
2013-08-07 18:05:00,61.5,4.3,30.05,SW,225,3.5,3.5,10,0.00,CLR,,0.01,WeatherDisplay:10.37,2013-08-08 01:05:00,
2013-08-07 18:10:00,61.2,4.1,30.05,South,180,3.5,3.5,10,0.00,CLR,,0.01,WeatherDisplay:10.37,2013-08-08 01:10:00,
2013-08-07 18:15:00,61.2,4.1,30.06,SW,225,3.5,3.5,10,0.00,CLR,,0.01,WeatherDisplay:10.37,2013-08-08 01:15:00,
2013-08-07 18:20:00,61.3,4.2,30.05,SW,225,1.2,1.2,10,0.00,CLR,,0.01,WeatherDisplay:10.37,2013-08-08 01:20:00,
2013-08-07 18:25:00,61.5,4.3,30.05,South,180,1.2,1.2,10,0.00,CLR,,0.01,WeatherDisplay:10.37,2013-08-08 01:25:00,
2013-08-07 18:30:00,61.3,4.2,30.05,NW,315,3.5,3.5,10,0.00,CLR,,0.01,WeatherDisplay:10.37,2013-08-08 01:30:00,
2013-08-07 18:35:00,61.0,3.9,30.05,SW,225,1.2,0.0,10,0.00,CLR,,0.01,WeatherDisplay:10.37,2013-08-08 01:35:00,
2013-08-07 18:40:00,60.6,3.6,30.05,SW,225,1.2,0.0,10,0.00,CLR,,0.01,WeatherDisplay:10.37,2013-08-08 01:40:00,
2013-08-07 18:45:00,60.4,3.5,30.05,West,270,3.5,3.5,10,0.00,CLR,,0.01,WeatherDisplay:10.37,2013-08-08 01:45:00,
2013-08-07 18:50:00,60.4,5.6,30.05,SE,135,1.2,0.0,11,0.00,CLR,,0.01,WeatherDisplay:10.37,2013-08-08 01:50:00,
2013-08-07 18:55:00,60.3,9.1,30.06,NE,45,1.2,0.0,13,0.00,CLR,,0.01,WeatherDisplay:10.37,2013-08-08 01:55:00,
2013-08-07 19:00:00,60.3,10.8,30.06,NE,45,1.2,0.0,14,0.00,CLR,,0.01,WeatherDisplay:10.37,2013-08-08 02:00:00,
2013-08-07 19:05:00,60.1,12.2,30.05,West,270,2.3,0.0,15,0.00,CLR,,0.01,WeatherDisplay:10.37,2013-08-08 02:05:00,
2013-08-07 19:10:00,60.1,13.7,30.05,WNW,292,2.3,2.3,16,0.00,CLR,,0.01,WeatherDisplay:10.37,2013-08-08 02:10:00,
2013-08-07 19:15:00,59.9,14.9,30.05,SW,225,2.3,0.0,17,0.00,CLR,,0.01,WeatherDisplay:10.37,2013-08-08 02:15:00,
2013-08-07 19:20:00,59.9,16.2,30.05,SE,135,1.2,0.0,18,0.00,CLR,,0.01,WeatherDisplay:10.37,2013-08-08 02:20:00,
2013-08-07 19:25:00,59.7,17.3,30.05,West,270,3.5,3.5,19,0.00,CLR,,0.01,WeatherDisplay:10.37,2013-08-08 02:25:00,
2013-08-07 19:30:00,59.4,19.4,30.06,NW,315,3.5,3.5,21,0.00,CLR,,0.01,WeatherDisplay:10.37,2013-08-08 02:30:00,
2013-08-07 19:35:00,59.0,21.2,30.05,NW,315,4.6,4.6,23,0.00,CLR,,0.01,WeatherDisplay:10.37,2013-08-08 02:35:00,
2013-08-07 19:40:00,58.6,21.9,30.05,East,90,1.2,0.0,24,0.00,CLR,,0.01,WeatherDisplay:10.37,2013-08-08 02:40:00,
2013-08-07 19:45:00,58.3,24.4,30.05,NE,45,2.3,2.3,27,0.00,CLR,,0.01,WeatherDisplay:10.37,2013-08-08 02:45:00,
2013-08-07 19:50:00,57.9,25.8,30.05,East,90,1.2,1.2,29,0.00,CLR,,0.01,WeatherDisplay:10.37,2013-08-08 02:50:00,
2013-08-07 19:55:00,57.7,27.3,30.05,NE,45,0.0,0.0,31,0.00,CLR,,0.01,WeatherDisplay:10.37,2013-08-08 02:55:00,
2013-08-07 20:00:00,57.7,28.8,30.04,North,0,1.2,0.0,33,0.00,CLR,,0.01,WeatherDisplay:10.37,2013-08-08 03:00:00,
2013-08-07 20:05:00,57.6,30.1,30.04,SW,225,1.2,1.2,35,0.00,CLR,,0.01,WeatherDisplay:10.37,2013-08-08 03:05:00,
2013-08-07 20:10:00,57.4,32.0,30.05,South,180,3.5,3.5,38,0.00,CLR,,0.01,WeatherDisplay:10.37,2013-08-08 03:10:00,
2013-08-07 20:11:00,57.2,31.8,30.05,South,180,3.5,3.5,38,0.00,CLR,,0.01,WeatherDisplay:10.37,2013-08-08 03:11:00,
2013-08-07 20:16:00,57.0,34.1,30.05,SW,225,2.3,2.3,42,0.00,CLR,,0.01,WeatherDisplay:10.37,2013-08-08 03:16:00,
2013-08-07 20:21:00,56.8,35.1,30.05,SW,225,3.5,3.5,44,0.00,CLR,,0.01,WeatherDisplay:10.37,2013-08-08 03:21:00,
2013-08-07 20:26:00,56.7,36.1,30.05,South,180,1.2,0.0,46,0.00,CLR,,0.01,WeatherDisplay:10.37,2013-08-08 03:26:00,
2013-08-07 20:31:00,56.5,36.5,30.05,SW,225,1.2,0.0,47,0.00,CLR,,0.01,WeatherDisplay:10.37,2013-08-08 03:31:00,
2013-08-07 20:36:00,56.5,37.0,30.05,SW,225,2.3,2.3,48,0.00,CLR,,0.01,WeatherDisplay:10.37,2013-08-08 03:36:00,
2013-08-07 20:41:00,56.3,37.9,30.05,SW,225,4.6,4.6,50,0.00,CLR,,0.01,WeatherDisplay:10.37,2013-08-08 03:41:00,
2013-08-07 20:46:00,56.3,37.9,30.05,SW,225,3.5,3.5,50,0.00,CLR,,0.01,WeatherDisplay:10.37,2013-08-08 03:46:00,
2013-08-07 20:51:00,56.3,38.4,30.05,SW,225,2.3,2.3,51,0.00,CLR,,0.01,WeatherDisplay:10.37,2013-08-08 03:51:00,
2013-08-07 20:56:00,56.3,38.9,30.05,SW,225,3.5,3.5,52,0.00,CLR,,0.01,WeatherDisplay:10.37,2013-08-08 03:56:00,
2013-08-07 21:01:00,56.1,38.7,30.05,SW,225,4.6,4.6,52,0.00,CLR,,0.01,WeatherDisplay:10.37,2013-08-08 04:01:00,
2013-08-07 21:02:00,56.1,38.7,30.05,SW,225,4.6,4.6,52,0.00,CLR,,0.01,WeatherDisplay:10.37,2013-08-08 04:02:00,
2013-08-07 21:05:00,56.1,38.7,30.05,South,180,5.8,5.8,52,0.00,CLR,,0.01,WeatherDisplay:10.37,2013-08-08 04:05:00,
2013-08-07 21:10:00,55.9,38.6,30.05,SW,225,3.5,3.5,52,0.00,CLR,,0.01,WeatherDisplay:10.37,2013-08-08 04:10:00,
2013-08-07 21:15:00,55.8,38.4,30.06,SW,225,3.8,3.8,52,0.00,CLR,,0.01,WeatherDisplay:10.37,2013-08-08 04:15:00,
2013-08-07 21:20:00,55.8,38.4,30.06,SW,225,3.5,3.5,52,0.00,CLR,,0.01,WeatherDisplay:10.37,2013-08-08 04:20:00,
2013-08-07 21:25:00,55.8,38.4,30.06,SSW,202,5.8,5.8,52,0.00,CLR,,0.01,WeatherDisplay:10.37,2013-08-08 04:25:00,
2013-08-07 21:30:00,55.6,38.2,30.06,SW,225,8.1,8.1,52,0.00,CLR,,0.01,WeatherDisplay:10.37,2013-08-08 04:30:00,
2013-08-07 21:35:00,55.4,38.5,30.06,South,180,8.1,8.1,53,0.00,CLR,,0.01,WeatherDisplay:10.37,2013-08-08 04:35:00,
2013-08-07 21:40:00,55.4,38.5,30.06,SW,225,5.8,5.8,53,0.00,CLR,,0.01,WeatherDisplay:10.37,2013-08-08 04:40:00,
2013-08-07 21:45:00,55.4,38.5,30.06,SW,225,3.5,3.5,53,0.00,CLR,,0.01,WeatherDisplay:10.37,2013-08-08 04:45:00,
2013-08-07 21:50:00,55.4,39.0,30.06,SW,225,5.8,5.8,54,0.00,CLR,,0.01,WeatherDisplay:10.37,2013-08-08 04:50:00,
2013-08-07 21:55:00,55.4,39.0,30.06,South,180,3.5,3.5,54,0.00,CLR,,0.01,WeatherDisplay:10.37,2013-08-08 04:55:00,
2013-08-07 22:00:00,55.4,39.5,30.06,SW,225,4.6,4.6,55,0.00,CLR,,0.01,WeatherDisplay:10.37,2013-08-08 05:00:00,
2013-08-07 22:05:00,55.2,39.8,30.06,South,180,3.5,3.5,56,0.00,CLR,,0.01,WeatherDisplay:10.37,2013-08-08 05:05:00,
2013-08-07 22:10:00,55.4,40.0,30.07,SW,225,5.8,5.8,56,0.00,CLR,,0.01,WeatherDisplay:10.37,2013-08-08 05:10:00,
2013-08-07 22:15:00,55.4,40.4,30.06,South,180,3.5,3.5,57,0.00,CLR,,0.01,WeatherDisplay:10.37,2013-08-08 05:15:00,
2013-08-07 22:20:00,55.0,40.1,30.07,South,180,4.6,4.6,57,0.00,CLR,,0.01,WeatherDisplay:10.37,2013-08-08 05:20:00,
2013-08-07 22:25:00,55.0,40.5,30.07,SW,225,3.5,3.5,58,0.00,CLR,,0.01,WeatherDisplay:10.37,2013-08-08 05:25:00,
2013-08-07 22:30:00,55.0,41.0,30.07,SW,225,3.5,3.5,59,0.00,CLR,,0.01,WeatherDisplay:10.37,2013-08-08 05:30:00,
2013-08-07 22:35:00,55.0,41.0,30.07,SW,225,3.5,3.5,59,0.00,CLR,,0.01,WeatherDisplay:10.37,2013-08-08 05:35:00,
2013-08-07 22:40:00,55.0,41.4,30.07,SW,225,3.5,3.5,60,0.00,CLR,,0.01,WeatherDisplay:10.37,2013-08-08 05:40:00,
2013-08-07 22:45:00,55.0,41.8,30.07,SW,225,3.5,3.5,61,0.00,CLR,,0.01,WeatherDisplay:10.37,2013-08-08 05:45:00,
2013-08-07 22:50:00,54.9,41.7,30.07,SW,225,2.3,2.3,61,0.00,CLR,,0.01,WeatherDisplay:10.37,2013-08-08 05:50:00,
2013-08-07 22:55:00,54.9,41.7,30.07,SW,225,3.5,3.5,61,0.00,CLR,,0.01,WeatherDisplay:10.37,2013-08-08 05:55:00,
2013-08-07 23:00:00,54.9,42.1,30.07,SW,225,2.3,0.0,62,0.00,CLR,,0.01,WeatherDisplay:10.37,2013-08-08 06:00:00,
2013-08-07 23:05:00,55.0,42.3,30.07,West,270,2.3,2.3,62,0.00,CLR,,0.01,WeatherDisplay:10.37,2013-08-08 06:05:00,
2013-08-07 23:10:00,54.9,42.1,30.07,SW,225,1.2,0.0,62,0.00,CLR,,0.01,WeatherDisplay:10.37,2013-08-08 06:10:00,
2013-08-07 23:15:00,54.9,42.1,30.07,SW,225,3.5,3.5,62,0.00,CLR,,0.01,WeatherDisplay:10.37,2013-08-08 06:15:00,
2013-08-07 23:20:00,54.9,42.5,30.07,SW,225,2.3,2.3,63,0.00,CLR,,0.01,WeatherDisplay:10.37,2013-08-08 06:20:00,
2013-08-07 23:25:00,54.7,42.3,30.07,SW,225,2.3,2.3,63,0.00,CLR,,0.01,WeatherDisplay:10.37,2013-08-08 06:25:00,
2013-08-07 23:30:00,54.9,42.5,30.07,SW,225,2.3,2.3,63,0.00,CLR,,0.01,WeatherDisplay:10.37,2013-08-08 06:30:00,
2013-08-07 23:35:00,54.7,42.3,30.07,SW,225,1.2,0.0,63,0.00,CLR,,0.01,WeatherDisplay:10.37,2013-08-08 06:35:00,
2013-08-07 23:40:00,54.7,42.7,30.07,SW,225,3.5,3.5,64,0.00,CLR,,0.01,WeatherDisplay:10.37,2013-08-08 06:40:00,
2013-08-07 23:45:00,54.7,42.7,30.07,West,270,1.2,0.0,64,0.00,CLR,,0.01,WeatherDisplay:10.37,2013-08-08 06:45:00,
2013-08-07 23:50:00,54.9,42.9,30.07,SW,225,2.3,2.3,64,0.00,CLR,,0.01,WeatherDisplay:10.37,2013-08-08 06:50:00,
2013-08-07 23:55:00,54.9,42.9,30.07,SW,225,1.2,0.0,64,0.00,CLR,,0.01,WeatherDisplay:10.37,2013-08-08 06:55:00,